KINEIS-1A

Last updated on Thu Sep 24 2026 00:03:12 GMT+0000 (Coordinated Universal Time)

1 60084U 24114F 26266.59644073 .00000545 00000+0 77490-4 0 9994 2 60084 97.8900 288.5376 0004373 162.0827 198.0541 14.80741710121954
UTC large
Height (km)
Speed (km/s)
/
Latitude / Longitude
Inclination (degrees)
Orbital Period (minutes)
Azimuth
Elevation
Range (km)
Doppler Factor

Next 0 passes for location: London (51.5072 / 0.1276)

No passes found over London.
KINEIS-1A